SDA_1684 (65994 NORAD) Tracking and Keplerian Element Data

This shows tracking and keplerian element data for the satellite.

Feedback or suggestion? Click here.




ElementValue
Catalog65994
NameSDA_1684
Epoch Orbit903
Epoch Day354.17869595
Epoch Year2025
RAAN17.7265
Inclination81.3007
Eccentricity0.0002173
Argument of Perigee288.944
Mean Anonmoly71.1481
Mean Motion13.84776659
Decay Rate1.66E-06
L11 65994U 25230W 25354.17869595 .00000166 00000+0 13687-3 0 9994
L22 65994 81.3007 17.7265 0002173 288.9440 71.1481 13.84776659 9030



Live tracking and technical data element details for SDA_1684 (NORAD 65994). SDA_1684 can be tracked NOW for your location showing map with azimuth and elevation plus other details from your city location.







IsCatalogInMostPopularTable: catalog: 65994, numindb: 7
Update: records affected: 1



GetName: 65994 SDA_1684

Hit Count: updated at: Tue, 21 Apr 2026 20:35:04 GMT